Regional Weather Roundup
Issued by NWS

Home | Current Version | Previous Version | Graphics & Text | Print | Product List | Glossary On
Versions: 1 2 3 4 5 6 7 8 9 10 11 12 13 14 15 16 17 18 19 20 21 22 23 24 25 26 27 28 29 30 31 32 33 34 35 36 37 38 39 40 41 42 43 44 45 46 47 48 49 50
000
ASUS45 KCYS 311610
RWRWY

WYOMING REGIONAL WEATHER ROUNDUP
NATIONAL WEATHER SERVICE CHEYENNE WY
1000 AM MDT FRI JUL 31 2015

NOTE:  "FAIR" INDICATES FEW OR NO CLOUDS BELOW 12,000 FEET
WITH NO SIGNIFICANT WEATHER AND/OR OBSTRUCTIONS TO VISIBILITY.

WYZ001-311700-
YELLOWSTONE NATIONAL PARK

CITY           SKY/WX    TMP DP  RH WIND       PRES   REMARKS
LK YELLOWSTONE   N/A     57  45  64 E3        30.54F
W YELLOWSTONE  NOT AVBL

$$
WYZ002>013-054>058-071-098>099-311700-
NORTHERN WYOMING

CITY           SKY/WX    TMP DP  RH WIND       PRES   REMARKS
JACKSON        SUNNY     61  37  41 CALM      30.45F
CODY           FAIR      79  36  21 SW7       30.31F
GREYBULL       FAIR      74  38  27 VRB3      30.25F
WORLAND        FAIR      74  33  22 VRB5      30.26F
SHERIDAN       FAIR      76  46  34 CALM      30.24F
BUFFALO        FAIR      81  39  22 VRB3      30.31F
GILLETTE       FAIR      81  43  26 S5        30.26F
HULETT         FAIR      79  45  29 NE7       30.29F
NEWCASTLE      FAIR      79  46  31 MISG      30.28S

$$
WYZ014>020-022>026-101>103-311700-
CENTRAL WYOMING

CITY           SKY/WX    TMP DP  RH WIND       PRES   REMARKS
BIG PINEY      FAIR      68  33  27 E5        30.46F
PINEDALE       FAIR      70  27  19 CALM      30.47S
DUBOIS         FAIR      64  30  27 E3        30.47F
LANDER         FAIR      74  34  23 N3        30.35F
RIVERTON       FAIR      74  33  22 N8        30.36F
CASPER         FAIR      76  38  25 CALM      30.34F
DOUGLAS        FAIR      78  42  27 VRB3      30.32F

$$
WYZ021-027>030-104>119-311700-
SOUTHERN WYOMING

CITY           SKY/WX    TMP DP  RH WIND       PRES   REMARKS
EVANSTON       FAIR      72  30  21 NE5       30.45F
KEMMERER       FAIR      72  28  20 CALM      30.47F
FORT BRIDGER   SUNNY     72  28  20 NW3       30.47F
ROCK SPRINGS   FAIR      67  29  24 S3        30.43F
DIXON          FAIR      73  37  27 SW3       30.43F
RAWLINS        FAIR      73  36  25 E8        30.43F
SARATOGA       FAIR      72  41  33 N3        30.45F
LARAMIE        FAIR      72  48  42 CALM      30.46F
CHEYENNE       FAIR      80  52  37 S10       30.39S
TORRINGTON     FAIR      73  57  57 CALM      30.27F
PINE BLUFFS    FAIR      79  57  47 SE6       30.34F

$$



USA.gov is the U.S. government's official web portal to all federal, state and local government web resources and services.